Orbital Elements
The following orbital elements are taken from MPC 54168:
Epoch 2008 May 14.0 TT = JDT 2454600.5
T 2008 Apr. 27.2107 TT MPC
q 1.468573 (2000.0) P Q
n 0.1714622 Peri. 181.3695 -0.9989542 +0.0440438
a 3.208907 Node 1.3523 -0.0354244 -0.5758171
e 0.542345 Incl. 31.3407 -0.0289074 -0.8163914
P 5.75
From 99 observations 1991-2002, mean residual 0".7.
|